Theta_e
303 303 303 302 302 302 302 303 305 305 305 303 303 303 302 303 303 304 304 304 305 305 306 306 305 305 305 305 305 306 306 306 306 306 307 307 307 307 308 308 308 308 309 312 313 313 312 311 311 310 311 311 311 314 313 313 313 313 314 314 314 314 314 314 315 315 316 317 317 317 317 315 316 322 326 324 321 326 330 333 338 335 336 341 343 343 344 344
303 303 302 302 302 303 305 306 306 305 304 304 303 303 302 303 304 304 304 304 305 305 305 305 305 305 305 305 306 306 306 306 306 307 308 308 307 306 307 308 307 309 310 312 313 312 311 311 311 310 311 312 312 313 313 313 313 313 315 314 313 315 315 315 315 315 316 316 317 317 316 315 317 322 326 324 323 328 331 334 337 337 338 341 343 343 343 344
303 302 302 304 306 307 308 308 307 305 304 304 303 303 302 303 303 304 305 305 305 305 305 305 305 305 305 306 305 305 307 309 311 311 312 312 310 307 306 307 308 310 312 313 312 311 310 310 310 310 312 312 312 312 313 313 313 313 314 313 314 315 315 315 315 315 315 316 317 316 315 317 321 324 326 326 327 330 330 332 336 338 339 341 344 343 343 344
304 305 307 309 310 310 310 309 308 307 305 304 303 303 302 302 303 304 304 304 305 305 305 305 305 305 305 305 304 306 310 314 315 314 313 312 310 309 307 306 308 312 314 312 311 309 309 310 310 310 311 313 312 312 313 312 313 314 313 313 315 315 314 314 315 315 315 315 315 316 315 316 320 323 326 328 327 327 328 332 335 337 340 342 344 342 342 343
308 310 310 310 310 310 310 309 308 307 306 304 303 303 303 303 302 303 303 304 304 304 304 304 305 304 304 303 305 308 312 315 315 314 312 310 308 308 307 306 309 313 313 311 311 309 309 310 310 311 311 313 313 311 312 313 312 313 313 313 315 314 314 315 315 315 314 314 315 316 316 316 317 321 326 328 326 326 329 334 334 337 340 342 343 342 342 342
311 311 310 310 310 310 310 309 308 308 307 305 304 303 303 303 303 303 302 303 303 303 304 304 304 303 303 306 309 311 313 316 314 313 312 311 308 307 307 306 310 314 312 311 311 309 310 310 311 311 312 313 313 312 313 313 312 312 313 314 314 314 314 315 314 314 314 314 315 315 315 315 315 320 325 328 326 325 329 333 336 339 340 341 343 342 341 340
310 310 310 311 311 311 310 310 310 310 308 306 304 303 303 303 304 304 303 303 303 303 303 303 303 303 305 308 312 313 315 314 312 313 313 311 309 308 306 307 311 313 312 312 311 310 310 310 311 312 312 312 312 312 312 313 313 312 313 314 314 314 314 314 314 314 314 314 315 314 315 315 315 320 324 328 327 324 326 331 337 341 341 342 342 341 340 339
311 310 310 311 311 311 311 312 312 312 311 309 306 303 303 303 303 304 304 303 303 303 302 303 303 304 307 309 312 315 315 313 311 313 314 311 310 310 308 309 311 313 312 312 311 309 310 311 311 311 311 312 311 312 312 311 312 312 312 313 314 314 314 314 314 314 314 314 314 314 315 316 316 318 323 327 326 324 326 331 337 341 341 342 342 341 340 339
312 311 310 311 312 312 313 313 313 313 312 312 310 306 303 303 303 303 304 304 304 304 303 304 303 305 309 309 312 316 313 310 311 314 313 311 311 311 310 310 311 312 313 312 310 310 310 312 312 312 313 312 312 312 312 312 312 312 312 313 314 314 315 314 314 314 315 314 315 315 316 316 316 317 321 326 327 326 328 333 338 339 340 342 341 340 340 339
312 312 311 311 311 312 313 313 312 312 311 312 313 311 306 303 303 303 304 304 304 304 304 304 304 306 309 309 314 316 311 309 309 311 310 311 311 311 312 312 312 312 313 311 310 310 312 313 313 313 313 313 313 313 313 313 313 314 314 314 314 315 315 314 314 314 315 314 314 316 316 316 316 317 320 324 326 328 330 334 337 339 340 341 341 340 339 338
313 313 312 311 311 311 312 312 312 312 311 311 313 315 310 304 304 304 304 304 304 304 304 304 305 306 308 310 314 315 310 308 308 308 308 309 311 311 312 312 312 313 313 311 310 311 313 313 313 314 313 313 313 314 314 313 314 314 314 314 314 315 314 314 314 315 315 314 314 316 316 316 317 316 319 322 325 329 331 334 336 338 340 341 341 340 339 338
313 313 313 312 312 312 311 311 311 311 311 311 312 316 315 307 304 304 304 305 304 304 304 304 305 306 308 311 314 313 310 310 309 309 309 308 309 311 310 310 311 313 312 311 310 311 312 312 312 314 314 313 313 314 314 313 314 314 314 314 315 315 314 315 315 314 316 315 314 315 315 316 317 317 320 322 324 328 330 334 335 337 340 341 341 340 339 339
310 312 314 313 312 312 312 310 310 310 311 311 312 316 316 308 305 305 304 305 304 304 304 305 305 306 311 315 315 313 311 311 311 311 311 310 309 309 308 307 309 310 310 310 311 311 311 311 312 313 314 314 314 314 313 314 314 314 314 313 314 314 314 316 315 315 315 314 313 315 314 315 317 316 320 322 323 327 330 332 333 337 340 340 340 340 340 340
307 309 311 313 312 312 311 310 310 309 310 312 312 316 316 310 308 307 305 304 305 305 304 305 307 308 314 316 314 313 313 312 312 312 312 311 310 310 309 309 309 310 310 311 311 311 311 311 311 313 314 314 314 314 313 314 314 314 314 313 314 313 313 316 316 316 315 313 314 315 313 314 317 316 319 322 323 327 328 329 332 336 339 340 341 341 341 341
305 306 308 310 312 311 310 310 309 309 311 312 313 315 315 313 312 310 307 306 305 305 305 306 308 311 316 316 312 313 313 313 314 312 311 311 310 311 311 310 310 311 310 311 311 310 311 311 312 314 314 314 313 314 314 314 314 314 313 312 313 312 313 316 316 317 315 315 316 315 313 315 316 316 318 321 323 326 327 327 331 334 337 338 339 340 340 340
304 305 306 307 309 310 309 309 308 309 311 313 313 314 314 313 314 313 312 310 309 308 306 307 308 312 316 315 314 315 315 315 315 313 312 310 311 311 311 311 311 310 310 310 310 310 310 312 313 314 314 313 313 314 314 313 313 314 314 313 313 313 313 314 316 318 317 315 316 314 314 316 316 315 317 320 322 325 325 326 330 333 335 336 337 337 337 337
304 304 305 305 307 308 308 308 308 309 312 314 313 313 314 313 313 314 313 313 312 310 308 308 309 312 315 314 315 315 315 315 314 313 313 311 311 311 311 311 311 311 311 310 310 311 311 313 313 313 314 314 313 314 313 312 313 313 314 314 314 313 313 313 315 318 317 316 316 315 316 316 316 316 317 319 322 323 324 325 329 332 333 335 335 336 336 336
304 304 304 304 305 306 307 307 307 310 313 313 313 313 314 312 313 315 314 313 312 311 310 308 310 314 315 313 315 316 315 314 314 314 313 312 311 311 311 312 312 311 311 311 312 312 313 313 315 314 314 314 314 314 312 312 313 313 314 314 313 313 313 314 314 317 317 316 316 315 315 316 317 316 316 318 321 323 324 325 328 330 332 333 334 333 334 335
304 304 305 304 304 305 306 307 308 311 313 313 312 313 314 313 314 315 314 313 313 314 314 312 312 316 314 313 315 315 314 314 314 314 313 312 311 312 311 312 311 312 312 313 313 313 314 314 314 314 314 315 315 314 313 313 313 314 314 314 314 313 313 315 316 316 317 316 316 316 316 317 317 316 316 317 320 322 324 326 327 328 329 331 332 332 332 333
304 304 304 304 304 305 306 306 309 312 313 313 312 313 316 317 317 317 316 315 315 315 316 314 314 315 315 315 315 315 314 314 313 314 313 312 312 312 312 312 312 313 313 314 314 315 315 314 314 314 315 316 316 316 316 316 315 315 314 314 314 313 314 316 316 316 317 316 316 317 317 317 317 317 317 317 318 321 324 326 327 326 326 328 330 331 332 333
303 304 305 305 305 305 306 308 311 312 312 313 312 314 317 316 316 316 315 316 315 314 314 315 314 314 315 315 315 315 315 314 314 313 313 312 312 312 312 312 312 313 313 314 315 315 314 314 314 315 316 317 317 317 318 317 317 316 315 313 313 313 314 316 317 316 317 317 316 317 316 316 318 318 318 317 317 319 322 324 326 325 324 325 326 329 330 332
303 304 305 305 305 306 308 310 313 312 312 313 313 314 315 314 313 313 313 315 315 314 315 314 313 314 314 314 314 314 316 315 314 313 313 313 313 313 313 312 312 313 314 314 314 314 313 314 315 315 316 317 318 318 318 318 318 316 315 315 313 314 314 316 317 317 317 316 316 317 316 316 318 318 319 318 316 317 320 321 323 323 323 323 323 325 327 330
303 304 305 305 306 308 309 311 313 312 312 313 313 314 314 313 312 312 312 315 317 316 315 314 314 315 315 315 314 314 316 316 315 314 313 313 313 314 313 312 312 312 313 313 313 313 312 314 315 316 317 318 319 319 319 319 317 316 315 314 314 315 314 314 317 318 318 317 317 317 316 316 318 318 318 319 318 320 321 320 320 321 321 322 322 323 325 327
302 303 305 306 307 309 310 311 312 311 312 312 313 313 313 311 312 312 314 317 318 317 317 316 315 315 315 315 315 315 316 316 316 315 313 313 314 313 313 313 312 311 312 313 313 312 312 314 315 315 317 318 318 319 319 316 316 317 317 315 315 316 315 314 316 318 319 318 318 316 315 314 317 317 318 320 319 319 320 318 318 318 318 319 321 322 323 325
302 303 304 306 308 309 310 311 312 311 312 312 312 312 312 311 311 312 315 318 319 317 317 316 315 316 316 315 316 316 317 316 316 316 314 313 314 313 313 312 312 312 312 312 312 312 314 316 315 315 316 317 317 318 318 316 315 316 317 316 316 317 317 317 317 317 315 316 317 316 312 312 316 317 318 318 318 318 318 318 318 318 317 317 318 319 321 323
302 302 304 305 306 308 310 312 312 311 311 313 312 312 312 311 311 313 317 319 317 315 316 316 315 315 315 316 317 316 316 315 314 314 313 313 313 312 312 312 312 313 312 312 313 312 313 315 315 315 316 316 316 316 317 317 314 314 317 317 316 317 317 318 317 316 313 314 317 317 313 312 315 317 318 318 318 317 318 318 318 317 317 317 317 317 318 319
302 302 303 304 305 306 310 312 311 310 312 313 312 311 311 310 311 315 318 317 315 314 315 315 314 314 314 315 316 316 315 313 312 312 313 313 312 312 312 312 312 312 312 314 313 312 314 315 314 316 317 316 315 315 317 317 314 315 318 317 316 317 317 318 317 315 314 315 317 317 314 313 313 315 317 317 316 317 318 318 318 317 317 317 317 317 317 318
304 302 302 304 304 305 307 309 310 311 312 311 310 311 311 310 313 318 320 317 315 315 314 314 313 312 312 313 314 314 314 312 312 312 311 312 312 312 313 313 312 312 313 313 312 313 315 315 314 315 314 314 314 315 317 317 316 317 318 317 316 317 317 318 316 315 315 315 313 315 315 313 312 314 317 316 315 316 317 317 317 318 317 318 317 317 317 317
306 304 302 303 304 304 307 309 310 312 312 311 310 310 309 311 316 320 319 316 316 314 313 313 312 312 312 312 313 314 314 313 313 311 310 312 311 312 312 312 313 313 312 312 313 314 314 313 313 313 312 313 315 315 316 317 318 317 317 316 316 317 317 317 315 314 315 314 313 314 315 312 312 314 316 315 315 316 317 317 317 318 318 317 317 317 316 316
307 307 304 303 304 304 305 308 310 311 311 310 309 308 311 315 320 320 317 315 315 313 312 312 312 311 312 312 313 313 314 314 313 311 311 312 311 311 311 312 313 312 313 313 313 313 312 312 312 311 312 314 315 315 315 316 317 316 315 315 316 316 316 316 315 313 313 313 313 315 315 313 311 312 315 316 316 317 317 317 318 318 317 317 317 316 316 315
307 309 307 305 306 306 307 309 309 308 308 307 307 310 316 320 320 318 316 315 313 312 312 312 311 311 311 313 313 313 313 313 312 313 312 312 312 312 311 311 312 313 313 313 313 313 312 312 312 312 313 313 313 313 314 315 315 315 316 315 315 315 315 314 314 314 313 312 314 315 314 314 312 312 315 317 316 316 317 317 316 317 316 317 316 316 315 315
308 310 309 309 311 311 312 313 310 307 308 309 310 315 320 319 317 317 315 314 313 312 312 311 310 310 311 312 312 311 312 312 312 313 312 312 313 313 312 312 313 312 312 313 313 313 313 313 313 312 312 313 312 312 313 314 315 315 315 315 314 313 314 314 313 313 312 313 315 314 314 314 313 314 316 316 315 315 315 315 315 315 316 316 316 316 316 316
308 311 311 312 314 314 313 313 310 309 312 312 313 318 318 314 316 317 315 314 313 312 311 310 310 310 311 312 311 311 311 311 311 312 311 312 312 312 311 311 312 312 312 312 312 312 312 313 312 312 312 313 313 312 313 313 314 315 314 314 314 313 314 314 313 311 312 313 315 314 314 313 312 314 316 315 315 314 313 313 314 314 315 316 316 316 317 317
307 311 312 313 315 315 314 313 312 310 312 313 315 317 314 310 314 317 316 314 312 311 311 310 310 311 311 311 310 310 311 311 311 312 312 311 312 313 312 311 310 311 313 313 312 311 311 312 312 312 312 312 312 312 313 313 314 314 314 314 314 313 314 314 312 312 312 313 315 315 314 313 313 315 315 314 314 313 313 313 313 314 315 316 317 317 318 318
306 310 313 314 315 316 314 314 312 309 311 315 315 313 310 308 312 316 315 313 311 311 311 309 310 312 311 310 310 309 310 311 310 311 312 312 312 313 313 312 311 312 312 312 312 312 310 310 312 312 312 311 312 313 313 312 313 314 314 313 313 313 314 313 313 313 311 312 314 314 313 313 314 315 314 313 313 312 313 313 313 315 315 316 317 317 318 318
305 307 311 313 314 316 315 313 311 309 311 316 313 309 309 309 311 314 313 311 311 312 311 311 311 312 311 311 310 309 310 310 310 311 312 312 312 312 312 312 312 312 312 312 312 312 310 311 312 311 311 311 312 313 312 312 313 313 313 312 313 314 313 313 314 314 312 312 313 312 312 313 314 314 313 312 312 311 312 313 314 315 315 316 317 317 318 318
304 307 311 313 314 316 315 312 309 309 313 315 311 309 311 311 312 313 311 310 311 310 312 313 312 312 312 311 311 310 310 311 310 310 310 310 312 312 311 311 311 311 312 313 313 313 311 311 313 312 312 311 311 311 312 312 312 312 312 312 313 313 313 313 314 313 312 312 313 312 313 313 312 313 313 312 312 312 312 312 314 315 315 315 316 316 317 317
304 306 311 313 314 316 314 309 309 312 315 314 310 311 312 311 312 311 310 310 310 310 312 313 313 311 312 312 311 310 310 311 311 311 310 310 311 312 311 312 311 311 312 312 313 314 312 311 312 312 312 311 311 312 312 312 312 312 312 313 313 312 313 313 313 313 313 313 313 312 312 312 311 312 313 312 313 312 312 312 313 314 314 315 315 315 316 316
305 308 312 313 313 315 311 308 310 314 315 312 310 312 313 311 310 310 309 310 310 311 312 313 312 311 311 312 311 311 310 310 311 310 310 310 311 311 311 311 311 311 311 312 312 313 313 312 312 312 312 312 312 312 311 311 312 312 312 312 312 312 312 312 313 313 312 312 313 312 312 312 312 313 314 313 313 313 312 312 312 314 314 315 315 315 315 315
306 309 313 312 311 312 310 309 311 314 313 312 311 312 313 312 310 309 308 309 310 311 312 312 312 312 312 311 311 311 310 310 310 310 310 310 310 311 311 311 311 311 311 311 312 312 312 312 311 312 312 312 311 312 312 312 313 312 312 312 312 312 313 312 312 312 312 312 313 313 312 312 313 315 315 314 314 313 312 313 313 314 314 314 314 315 315 314
305 308 313 312 310 310 309 310 312 313 313 313 313 313 312 311 310 309 308 308 309 310 310 311 312 312 312 311 311 311 310 310 309 309 309 308 308 310 310 310 311 311 310 311 311 312 311 311 311 311 312 312 312 312 311 312 312 312 312 312 312 313 313 312 312 312 312 312 311 312 312 312 315 316 315 314 314 313 313 313 313 314 314 314 314 314 314 313
306 308 310 309 309 309 310 311 313 314 313 312 312 311 310 310 309 309 308 308 309 309 310 310 311 311 311 311 311 310 309 310 309 308 309 308 307 309 310 310 311 311 310 310 312 313 312 311 310 310 310 310 311 311 311 311 311 311 312 312 312 313 312 312 312 312 312 312 312 312 312 313 315 315 315 314 314 313 312 313 313 314 314 313 313 312 312 312
308 308 308 307 307 309 310 311 311 312 312 311 311 310 309 309 309 309 309 309 309 309 310 310 310 310 311 310 310 309 309 309 309 308 308 308 308 310 309 310 312 312 311 310 311 313 313 311 309 309 310 310 311 311 310 310 310 311 312 312 312 313 313 313 313 313 313 313 312 312 312 313 314 313 313 313 313 312 312 313 313 313 313 313 312 312 312 312
307 308 309 307 306 309 310 311 310 310 311 312 311 310 308 308 309 309 309 309 309 309 310 310 309 309 309 309 309 309 308 308 308 308 308 308 309 309 309 310 311 312 312 312 313 312 310 310 310 309 309 309 310 310 310 310 310 311 312 312 311 311 312 313 313 313 313 313 312 312 312 313 313 312 311 311 311 311 312 313 313 313 313 313 312 312 312 312
307 309 310 307 307 309 310 310 311 311 311 312 311 310 309 308 308 309 309 309 308 309 310 309 309 308 308 308 308 309 308 308 308 308 308 308 309 308 308 309 310 313 313 312 313 312 309 309 311 309 308 309 309 310 310 310 310 311 312 311 311 311 312 313 312 312 312 313 313 312 312 313 313 312 311 311 310 310 311 312 312 313 313 312 312 312 312 312
308 308 309 308 308 309 309 309 311 311 311 311 311 310 310 309 308 307 307 308 308 308 309 309 308 308 308 308 308 308 308 307 307 308 308 308 309 308 308 308 309 312 312 310 311 311 309 310 311 309 309 309 309 309 310 310 310 310 310 310 310 310 311 312 311 311 312 312 312 312 313 313 313 312 311 311 310 310 311 312 312 312 313 312 312 312 311 311
308 308 308 308 308 309 309 309 310 310 310 310 311 311 310 310 309 307 307 307 307 307 308 308 307 308 308 309 309 309 309 308 308 308 309 308 308 307 306 307 308 308 309 310 309 310 310 310 310 311 310 309 309 309 309 309 309 309 309 310 310 311 311 311 310 311 312 311 311 312 312 312 312 312 311 311 311 310 312 312 311 312 312 312 311 311 310 310
307 307 307 307 308 308 308 308 308 309 309 309 310 310 310 309 309 308 307 307 307 307 308 308 307 307 308 309 309 310 309 309 309 310 310 308 309 307 306 307 307 306 308 309 309 309 310 309 310 310 309 308 308 308 309 308 308 308 309 310 310 310 311 311 311 311 311 311 311 311 311 312 311 310 311 311 311 311 312 312 311 312 312 311 311 310 310 309
306 307 306 306 307 308 307 307 308 308 308 309 308 308 309 309 308 307 306 307 308 307 307 308 307 306 306 307 308 309 310 310 309 310 310 309 309 308 308 307 307 307 307 308 308 309 308 307 309 309 308 308 308 307 308 308 308 308 309 309 310 310 310 311 311 311 311 311 311 311 312 312 311 310 310 311 313 312 311 312 312 312 312 311 310 310 310 308
304 305 305 306 307 306 307 307 307 308 308 308 308 307 307 308 307 306 305 306 308 308 307 308 307 306 305 306 308 309 309 309 309 309 309 309 308 308 308 308 307 307 307 306 308 308 307 307 309 308 307 307 307 307 307 307 307 307 307 308 309 309 310 311 311 311 311 311 311 311 311 311 310 310 311 312 312 311 311 312 313 312 311 310 310 310 309 307
300 301 303 306 306 305 306 306 306 307 307 307 307 306 306 306 306 305 304 304 305 306 306 307 307 306 305 306 307 307 306 306 307 307 306 307 307 307 307 307 306 307 307 306 307 308 307 307 308 307 306 307 306 306 306 306 306 306 306 307 307 308 309 310 311 311 311 311 310 310 310 310 310 310 311 311 312 311 310 311 311 312 311 310 310 309 308 307
299 299 301 304 305 304 305 305 305 306 305 305 305 305 305 305 305 305 304 303 303 304 304 305 307 307 307 308 306 304 303 303 304 304 304 305 305 305 305 305 305 305 306 306 306 306 306 306 306 306 306 305 305 305 305 305 305 304 306 307 307 308 308 308 309 310 310 310 310 310 310 310 309 309 309 310 310 310 310 310 311 312 311 309 309 309 307 306
Wind_Speed
6 5 4 3 3 4 5 5 6 7 7 7 7 6 6 5 3 2 1 1 2 2 3 3 4 4 4 4 4 5 5 6 7 9 8 5 5 8 9 8 8 8 9 12 11 9 9 8 8 9 9 9 9 8 8 7 6 6 6 6 5 5 3 1 2 1 4 2 3 7 8 10 9 2 3 5 10 11 12 11 8 9 6 7 13 20 23 22
5 4 3 3 3 3 4 6 6 7 6 6 6 6 5 4 3 2 1 1 1 1 2 2 3 3 3 3 3 4 5 5 6 7 6 5 7 7 9 9 8 9 9 10 10 9 9 9 9 10 10 10 8 8 8 8 8 8 5 5 6 5 1 2 2 4 5 6 8 9 9 10 9 3 2 5 11 13 12 12 11 11 10 11 17 21 21 21
4 3 3 3 3 4 5 6 6 6 6 6 5 5 4 3 3 2 1 1 1 1 1 1 2 2 2 2 2 2 1 2 2 1 1 3 7 7 9 10 9 10 11 9 9 9 8 8 9 11 10 9 8 8 9 8 8 8 5 6 5 3 2 2 4 6 6 8 10 9 10 10 5 2 3 5 9 13 12 12 14 15 14 16 20 20 21 21
3 4 4 4 4 5 6 6 6 6 6 5 4 4 4 3 3 2 1 1 1 1 1 1 2 2 2 1 1 0 2 4 3 2 1 1 4 7 9 10 11 12 12 9 8 8 7 7 9 10 10 8 8 8 8 8 6 5 6 7 3 2 4 4 4 6 7 9 10 10 11 7 3 3 5 5 8 10 12 12 13 16 18 20 22 21 21 22
4 5 5 5 6 6 6 7 7 7 6 4 3 3 3 3 2 2 1 1 0 0 0 1 1 1 1 1 0 1 2 3 4 1 1 1 2 7 9 11 13 13 12 10 8 7 7 8 9 9 10 7 7 9 8 8 6 4 8 10 7 4 5 5 4 5 7 8 9 9 8 7 5 5 6 7 7 4 6 9 8 11 18 21 23 22 22 22
5 5 6 6 6 6 7 7 8 7 7 5 3 2 2 2 2 2 2 1 0 0 0 1 1 1 1 1 2 2 3 1 5 2 1 3 2 6 9 12 14 14 12 9 7 7 7 9 9 9 9 6 7 7 5 8 7 6 8 8 8 8 7 7 7 6 7 9 9 8 7 7 7 5 4 8 5 4 3 6 5 10 15 18 21 21 21 22
5 6 6 7 6 6 7 8 8 8 8 7 5 3 2 2 3 3 2 1 1 0 1 1 0 1 2 3 4 4 2 4 4 2 2 3 4 7 9 12 13 13 11 8 7 7 8 9 9 7 7 5 7 6 3 7 10 9 7 5 7 8 8 9 8 7 8 10 10 9 8 7 7 2 2 7 3 5 2 6 8 12 15 17 19 19 20 21
4 5 6 7 7 7 7 7 8 9 9 9 9 6 4 3 3 3 2 1 1 0 2 2 2 3 2 3 2 2 3 5 3 1 4 4 5 7 9 12 13 11 9 8 6 6 8 8 6 7 7 3 5 7 5 7 10 10 8 6 6 7 7 8 8 8 9 10 9 8 8 6 4 2 2 5 4 4 3 8 11 13 16 17 18 18 19 20
3 4 5 6 7 7 7 7 8 9 10 10 10 9 6 4 2 3 2 1 1 1 3 2 3 3 2 3 2 2 5 6 2 4 5 6 6 7 8 9 11 10 9 7 6 6 7 6 4 4 4 3 5 6 6 7 6 7 8 7 7 7 7 7 7 8 7 6 5 5 5 2 2 3 4 4 5 5 5 8 12 15 17 17 18 18 20 20
3 3 4 4 5 5 6 6 8 9 10 11 11 9 8 5 3 3 3 1 1 1 2 2 4 3 2 2 4 1 6 6 5 5 6 8 6 7 8 7 9 9 8 7 7 6 4 3 3 2 2 4 5 4 5 7 1 2 7 8 9 9 7 6 6 6 5 4 3 4 3 2 3 5 3 5 5 6 7 9 12 15 17 18 18 19 19 20
3 3 3 3 3 4 4 5 7 8 10 11 11 9 7 6 4 3 3 1 1 1 1 2 4 2 3 1 5 1 8 7 7 7 7 9 7 7 6 7 8 8 7 7 7 5 3 3 2 3 3 5 6 5 5 5 3 3 7 8 9 7 4 4 4 4 5 3 3 5 3 4 5 3 3 6 6 7 8 10 13 14 16 17 18 19 19 19
5 4 3 3 3 3 4 5 6 7 9 11 11 9 7 6 5 4 3 2 1 1 1 2 3 2 2 1 2 5 9 7 7 7 9 10 8 7 6 6 8 8 6 6 6 4 2 2 1 3 1 3 5 5 4 2 5 6 6 7 6 5 4 2 3 4 4 3 2 5 4 7 6 3 6 5 6 7 8 10 12 14 15 17 18 19 19 19
5 5 4 4 4 4 4 5 5 7 8 10 11 9 6 6 5 4 3 2 2 2 2 3 3 2 1 1 4 8 8 6 6 6 7 10 8 7 7 8 10 9 8 6 6 5 4 2 2 3 1 3 3 1 1 3 6 6 5 6 4 6 6 5 4 6 5 3 0 6 6 7 7 5 5 4 5 7 9 10 11 13 14 16 17 17 18 19
6 6 5 5 5 5 5 5 6 6 8 9 10 8 5 5 6 6 5 3 3 3 3 3 3 2 1 3 6 7 7 6 5 5 5 8 8 7 9 11 11 11 9 7 7 6 4 2 3 3 3 4 2 1 4 5 6 4 4 4 4 5 6 9 4 5 6 3 1 7 6 4 8 6 4 3 5 7 8 9 11 12 13 15 16 16 17 18
6 6 6 6 6 6 5 5 6 6 7 9 9 7 5 3 5 6 6 5 4 3 2 2 3 2 1 5 5 5 7 5 4 5 5 6 6 6 8 9 9 9 7 6 6 5 3 2 3 4 2 3 4 5 5 5 5 4 4 4 4 4 6 10 6 3 4 4 2 6 6 3 6 5 3 3 4 7 7 9 11 12 13 14 15 15 16 16
5 5 6 6 6 6 6 6 6 5 6 8 8 6 5 4 3 3 5 6 4 3 2 1 3 1 2 5 6 6 7 4 4 6 6 7 6 6 7 8 8 5 4 4 4 4 3 2 3 3 2 4 5 5 4 4 5 5 4 2 3 4 5 8 7 6 4 4 4 5 7 2 5 5 4 3 5 7 7 8 10 11 12 13 14 14 15 16
5 5 5 6 6 6 6 5 6 5 5 7 8 7 6 6 4 1 4 7 6 4 2 1 3 2 0 5 7 6 5 4 7 7 8 9 8 7 6 7 5 2 2 4 4 4 3 2 3 3 3 3 3 4 5 5 5 5 4 1 2 3 2 5 7 6 2 2 3 3 7 3 3 3 3 4 6 7 8 7 8 9 11 12 13 14 16 16
4 4 4 4 5 5 5 5 4 3 4 5 7 7 6 8 5 3 3 8 6 3 1 3 4 2 3 6 5 4 3 6 10 9 9 10 9 8 6 5 4 3 6 6 4 5 4 4 4 3 4 4 3 5 5 2 1 3 4 3 3 4 4 2 5 5 3 2 2 3 6 2 1 3 4 5 6 8 8 7 7 8 10 11 12 14 16 17
3 3 3 3 3 4 4 3 3 2 3 4 6 7 6 7 3 4 4 9 4 3 0 5 5 2 4 7 4 2 2 7 11 10 10 11 10 9 6 5 5 6 7 6 6 6 4 4 5 4 4 3 1 3 4 4 3 2 3 3 3 5 4 1 5 5 5 3 4 2 4 2 0 2 4 5 6 8 9 7 6 7 9 11 12 14 16 16
3 3 3 2 2 2 3 3 2 1 2 3 5 5 4 5 2 3 5 7 6 4 3 2 4 3 3 5 3 2 3 8 10 10 11 12 11 9 7 6 6 8 7 3 4 4 3 5 5 3 0 2 2 2 4 4 3 3 4 5 4 4 4 4 4 4 4 5 3 1 4 4 1 1 3 5 6 8 10 9 9 9 10 11 12 14 15 16
3 3 2 1 1 2 3 3 2 1 2 2 3 3 3 6 3 2 6 5 5 5 5 4 6 5 2 3 2 3 6 7 8 10 12 11 10 10 8 7 7 7 4 1 2 3 4 6 2 1 4 3 1 1 1 2 2 5 6 6 5 6 4 5 4 3 2 5 2 2 6 6 3 1 3 6 7 9 11 11 10 11 11 11 12 14 15 15
2 2 2 0 1 3 4 3 2 1 2 1 2 2 2 5 5 6 7 5 4 5 4 4 5 5 3 3 3 5 6 7 9 10 11 11 11 9 7 7 8 4 5 4 3 4 6 5 4 4 3 2 2 3 4 3 3 5 6 6 5 4 3 4 5 4 1 4 3 0 6 7 4 4 3 6 8 8 9 10 10 11 12 12 13 14 14 15
2 1 1 0 2 4 4 2 1 1 2 1 1 1 2 5 7 7 7 6 4 2 2 4 5 4 3 3 3 6 5 5 9 11 11 10 9 7 5 6 5 3 6 7 5 4 4 3 7 5 2 4 4 4 5 4 4 6 5 6 4 2 3 3 6 5 2 2 4 4 6 7 6 6 6 7 7 5 5 7 8 9 10 12 12 13 13 15
3 1 1 1 3 4 3 2 2 2 3 3 1 1 4 7 9 9 5 6 2 2 2 3 4 3 4 3 4 6 4 2 4 8 11 11 8 6 5 3 3 4 5 5 5 6 0 7 6 3 3 5 4 6 7 5 5 5 5 7 4 2 4 4 2 3 3 3 3 6 7 7 6 8 7 7 7 6 6 7 8 8 9 10 11 12 13 14
3 1 1 1 3 4 4 4 4 3 4 4 4 5 7 9 11 8 4 5 2 4 3 4 4 3 4 4 5 4 3 3 2 4 9 10 7 5 3 2 4 3 4 4 5 5 2 6 2 4 4 5 5 6 7 6 4 5 7 9 7 3 4 4 1 3 5 5 2 4 7 4 3 5 5 5 6 7 8 7 7 7 8 10 11 13 14 15
4 2 2 3 3 4 4 3 4 4 4 5 6 7 9 10 10 6 4 4 4 4 3 5 4 4 4 4 5 5 5 4 2 3 9 10 7 4 3 4 3 0 3 3 4 2 3 4 2 3 4 5 6 6 6 6 7 4 6 8 8 6 5 5 4 4 6 3 2 2 7 3 3 5 4 4 6 7 8 6 4 4 6 8 9 10 12 13
6 3 3 3 3 5 4 3 5 6 4 6 8 9 9 10 9 4 4 4 4 2 2 4 3 4 4 3 6 6 3 5 5 4 8 9 8 6 5 4 3 2 3 3 3 1 4 5 4 4 4 6 6 5 5 7 8 1 3 6 8 7 6 6 6 5 5 3 2 4 5 5 5 4 5 4 6 7 8 6 5 3 3 4 5 6 8 10
6 4 3 3 4 5 5 6 7 6 6 8 9 10 9 8 5 3 5 2 4 1 2 4 2 3 3 2 6 5 1 3 3 5 6 9 7 6 6 3 2 3 4 5 1 4 4 4 5 5 6 7 5 1 3 8 7 1 3 3 5 6 5 5 6 6 3 3 5 6 4 5 6 3 5 5 7 8 7 4 2 2 2 0 3 5 7 8
7 4 3 3 4 3 4 6 5 5 7 8 9 8 7 5 3 4 5 1 2 2 2 3 3 4 3 3 5 5 2 1 1 5 6 8 7 4 4 1 2 2 5 6 4 2 3 2 2 5 6 5 0 5 1 7 4 2 3 4 4 5 4 5 6 6 3 5 8 4 4 5 6 4 5 5 5 4 3 1 1 2 3 3 3 5 7 8
8 4 3 3 3 4 4 4 4 6 6 7 7 5 4 3 3 5 5 1 1 3 3 2 3 2 4 7 5 4 4 2 3 5 7 6 7 4 1 1 3 4 4 6 6 1 3 3 1 5 7 2 4 5 2 2 1 4 6 6 6 6 5 5 5 4 4 7 5 3 4 5 6 4 3 1 1 2 3 2 3 4 6 7 7 8 9 9
9 5 2 1 2 1 1 2 5 6 6 6 4 3 3 4 4 5 4 1 1 4 4 3 2 1 5 6 4 5 5 4 4 5 6 5 7 6 3 3 4 5 5 5 5 3 4 6 4 4 6 2 2 3 2 1 4 5 6 6 6 5 4 5 5 4 6 6 2 5 4 5 7 3 2 4 3 3 3 4 5 7 8 9 10 10 9 9
8 4 1 2 3 2 2 1 3 3 3 3 2 4 5 4 5 4 2 3 3 3 3 2 2 2 4 4 4 5 4 4 3 2 2 3 4 3 2 2 1 4 5 3 3 3 5 5 4 4 6 7 7 5 4 5 6 6 7 6 6 6 5 6 6 5 6 3 4 5 3 5 7 1 5 4 3 3 2 3 5 7 9 10 10 9 9 9
8 4 2 3 2 1 1 0 1 1 2 1 3 6 5 5 5 1 2 3 1 2 2 1 2 2 4 4 5 3 2 3 2 2 1 2 3 2 2 1 2 5 4 1 2 4 4 4 6 5 6 7 9 7 4 5 6 8 7 6 7 6 6 7 6 6 6 2 5 4 2 5 6 1 5 4 3 2 1 2 3 5 7 8 8 9 8 9
8 4 4 4 3 3 2 1 1 1 1 1 5 6 5 5 2 1 2 3 3 2 2 1 2 3 2 2 4 2 1 3 2 2 3 3 4 3 3 3 0 4 4 3 3 4 5 3 5 3 3 5 9 7 5 4 5 7 6 6 7 6 6 7 6 6 7 2 5 5 3 5 5 2 5 4 4 3 2 2 2 2 4 5 6 8 9 9
8 5 6 6 6 5 3 3 2 2 2 3 6 5 5 5 2 3 3 2 3 3 3 1 4 5 4 4 4 3 2 2 3 1 1 2 1 1 2 3 2 2 3 4 1 1 7 4 4 3 3 3 5 4 5 6 6 5 4 7 7 5 6 5 3 3 5 4 2 4 4 3 0 4 5 5 5 5 4 4 4 4 5 5 7 9 10 10
8 6 6 7 8 8 5 4 4 3 3 4 6 6 4 2 1 2 2 2 1 2 4 5 5 5 5 4 3 3 2 2 1 2 1 1 1 2 2 3 3 2 3 3 1 2 6 3 6 5 3 2 2 2 3 6 5 2 5 8 3 3 6 6 2 2 1 7 7 5 6 4 3 4 7 7 7 7 6 6 6 6 6 6 8 10 10 11
8 6 6 8 10 9 6 5 4 3 4 6 6 4 2 1 1 1 1 0 1 1 4 6 3 3 4 4 4 5 2 1 2 2 2 3 1 2 3 2 3 3 4 3 2 1 4 4 3 3 2 4 2 3 4 5 5 4 5 4 1 2 5 6 5 3 4 8 7 6 9 8 6 4 7 9 9 9 8 7 7 6 6 8 10 10 10 11
7 5 6 8 10 9 8 6 4 4 5 6 5 3 2 2 2 1 1 1 2 3 6 6 2 2 3 4 4 5 2 3 3 2 3 3 2 1 2 2 3 3 4 4 3 1 3 7 3 3 1 3 4 4 5 5 6 7 4 1 2 5 6 6 6 7 8 8 7 9 10 9 9 5 8 11 11 11 9 8 8 7 7 8 8 9 10 11
6 4 6 8 9 9 9 6 4 5 6 6 5 3 3 3 4 2 1 2 4 5 5 4 2 2 3 3 2 3 2 3 1 2 3 2 2 1 0 1 2 3 3 3 3 1 1 5 2 4 3 1 3 6 7 6 7 5 5 4 4 5 6 6 6 6 8 8 8 9 9 8 7 5 9 12 12 13 11 9 8 7 7 7 7 8 9 11
4 4 5 6 7 7 7 5 4 6 6 5 4 2 3 4 5 4 0 2 3 3 3 3 3 3 4 3 2 2 2 3 3 3 2 2 2 3 2 1 1 1 2 2 2 0 2 3 4 3 4 3 5 4 4 5 3 5 6 7 7 5 4 6 7 7 7 9 8 8 9 7 3 1 7 11 11 12 11 9 8 7 7 7 7 8 8 10
3 4 4 6 6 5 5 6 5 5 4 3 3 2 2 2 4 5 2 2 2 1 2 3 3 3 3 3 3 3 3 4 4 4 3 3 3 2 2 2 3 2 1 4 3 1 2 3 5 5 4 6 2 3 4 6 5 5 6 7 8 7 6 7 9 8 7 9 9 8 10 6 2 2 3 8 9 10 10 10 9 9 8 8 8 8 8 9
3 3 2 4 6 4 5 6 3 2 4 3 1 2 2 1 3 4 4 3 3 2 1 3 3 3 4 4 3 3 4 4 4 4 3 3 2 1 3 2 3 3 3 4 0 2 2 3 6 7 7 8 2 5 2 3 5 6 6 7 7 7 8 9 10 8 7 8 7 8 10 4 4 5 3 6 7 8 9 10 10 10 9 8 8 8 8 9
3 3 2 3 5 4 6 6 3 3 4 1 1 2 2 1 3 4 4 4 3 3 4 3 2 3 3 3 3 5 5 4 4 3 2 2 2 4 4 2 2 4 4 3 1 3 1 3 6 7 8 8 4 2 3 2 4 7 7 6 6 7 8 8 8 7 7 9 8 8 10 4 4 4 4 4 5 7 8 8 10 10 8 8 8 8 8 8
4 3 2 3 2 7 7 6 5 5 4 3 3 4 3 1 0 1 3 1 0 1 3 2 2 1 1 2 3 5 4 4 4 3 2 3 3 5 3 2 1 3 2 2 1 1 2 4 4 6 7 7 6 6 5 6 6 7 6 4 4 6 7 5 6 6 7 11 11 10 10 4 4 3 1 2 3 6 7 8 9 9 8 8 7 7 7 7
5 2 1 4 2 5 4 2 3 4 2 4 5 4 4 3 3 2 1 2 3 2 1 1 1 1 2 3 3 4 4 4 4 2 2 3 4 4 2 2 1 1 3 5 3 1 4 5 4 6 7 6 7 6 3 2 4 5 4 4 4 6 7 6 7 9 8 9 8 9 10 3 6 6 5 4 5 6 8 8 8 8 8 8 7 6 5 6
3 1 1 2 5 4 3 5 3 3 2 3 4 2 3 4 4 3 2 2 3 2 1 1 1 2 3 4 5 5 6 5 4 3 4 4 5 4 2 1 1 2 4 4 3 2 4 5 6 9 10 8 9 8 4 6 6 7 6 7 6 5 7 7 7 9 9 8 9 10 11 8 6 9 9 8 8 8 9 10 11 10 9 8 7 5 5 5
2 2 3 2 3 4 5 5 4 1 0 1 2 1 2 3 4 2 1 2 2 1 0 0 1 4 4 5 6 6 5 6 5 5 5 4 4 5 4 2 2 3 2 1 1 2 5 6 8 11 12 11 13 13 9 8 10 12 12 11 10 8 8 9 9 10 10 9 10 10 9 10 10 9 10 10 9 9 9 12 13 12 11 10 8 6 5 5
4 2 4 3 2 2 3 5 6 4 2 1 1 1 0 2 2 2 2 2 1 0 1 1 2 2 3 3 4 5 5 6 6 5 4 3 3 4 5 5 4 2 2 3 0 2 5 7 8 10 13 13 13 13 11 10 11 13 14 14 13 12 12 12 12 14 13 11 11 11 10 11 10 8 8 8 9 10 11 12 12 11 11 11 9 8 7 6
6 3 5 4 3 4 5 4 5 3 3 2 1 2 1 1 2 3 3 1 2 1 2 2 3 1 1 2 5 5 4 4 4 4 3 2 3 4 4 5 5 4 4 3 1 1 4 5 6 9 13 13 14 14 13 13 13 14 15 15 15 15 15 14 14 15 16 16 15 14 12 11 8 9 10 7 6 10 11 10 11 12 12 12 11 10 9 7
6 4 4 3 2 5 5 4 3 1 1 2 1 2 3 2 3 4 4 4 1 2 2 1 3 3 2 1 2 1 3 3 1 2 1 1 2 3 3 2 2 4 4 2 0 1 2 3 2 6 11 11 13 14 14 14 15 16 16 17 16 16 16 15 14 13 13 14 14 12 11 9 9 12 13 6 2 6 9 11 13 13 13 13 12 10 9 8
9 7 5 3 2 4 5 3 2 2 1 3 2 3 3 3 4 4 5 7 6 4 4 3 2 2 1 3 4 5 6 5 4 4 3 3 2 1 2 2 2 2 3 3 1 2 3 5 4 6 9 10 11 13 14 14 16 18 18 17 17 16 15 13 12 12 12 12 12 12 12 9 7 11 14 10 6 8 11 12 12 12 12 13 12 11 10 9
12 9 7 3 1 4 4 2 1 2 1 4 4 4 4 4 4 2 2 4 6 7 7 6 3 1 2 4 6 6 6 5 5 5 4 4 4 4 4 3 4 5 4 3 2 2 4 6 6 7 9 9 8 9 9 9 12 12 10 10 13 15 15 15 15 14 15 13 11 11 10 6 4 4 9 10 10 12 12 10 9 11 12 13 12 11 10 8
Wind_Direction
329 324 327 339 343 343 336 335 338 337 342 346 346 357 2 5 17 18 7 176 175 204 208 206 214 221 230 241 249 249 252 256 259 265 264 249 233 224 223 218 204 201 187 175 177 186 188 192 194 193 193 191 203 197 182 193 199 207 227 234 238 233 227 249 236 287 339 337 350 347 357 341 330 287 243 224 210 202 179 176 161 154 135 108 133 141 147 156
342 348 3 359 349 351 348 346 346 344 348 350 353 3 6 12 21 22 30 153 146 160 190 206 222 227 236 247 251 253 261 262 260 264 264 237 227 216 210 207 191 184 174 170 182 186 190 195 188 188 193 192 193 187 185 187 201 224 238 234 241 243 242 22 318 318 314 307 323 330 343 337 325 313 228 218 195 185 178 175 169 158 137 129 140 143 151 160
358 16 25 12 7 5 3 0 356 357 356 354 358 2 12 20 25 34 44 102 123 139 176 228 241 245 252 262 260 267 266 227 214 207 233 233 226 217 207 200 182 171 164 167 180 187 194 188 183 189 197 200 190 190 195 184 199 224 236 239 240 260 298 302 278 284 294 307 314 320 329 331 339 333 249 231 193 185 190 179 176 171 153 146 147 148 156 161
33 44 41 26 22 17 15 12 8 9 3 359 359 2 17 22 21 27 39 73 107 139 173 252 269 276 273 294 269 72 132 182 145 126 187 265 225 215 209 193 174 165 160 169 174 178 182 175 181 190 203 203 183 197 202 183 197 208 219 250 271 333 285 266 258 276 293 304 307 312 318 330 8 294 258 236 197 195 204 186 183 180 161 153 153 155 160 161
50 50 44 32 27 25 26 23 22 19 11 4 354 3 22 24 20 17 34 58 69 146 233 292 306 298 304 347 175 82 240 200 109 113 260 24 217 201 201 186 168 162 162 171 166 168 174 172 180 189 207 205 177 201 202 186 210 225 225 254 284 291 274 273 283 291 300 300 295 301 313 335 328 265 245 233 213 193 195 178 179 182 164 157 156 157 161 162
49 46 42 37 33 34 39 38 36 30 24 16 359 2 11 20 24 19 31 49 63 229 259 14 328 306 68 62 75 57 297 15 67 269 244 65 122 162 181 175 163 164 164 168 163 174 175 175 188 190 205 208 191 201 186 183 214 243 231 242 265 269 274 282 286 291 297 291 288 301 318 322 297 260 232 231 227 46 106 156 149 164 161 157 156 158 162 164
45 45 41 41 39 42 46 43 39 34 31 26 19 12 358 21 23 24 34 46 65 208 104 88 73 123 113 81 72 77 39 33 33 260 172 99 96 127 161 162 162 164 162 170 172 181 178 186 199 191 200 206 200 201 175 192 214 244 251 246 260 268 272 275 281 285 286 283 286 296 298 292 282 281 226 220 193 47 115 157 143 148 154 156 156 160 164 165
38 40 42 44 47 49 50 47 41 36 32 28 26 22 13 15 12 22 30 44 70 125 104 112 118 119 119 79 72 137 83 33 9 170 143 127 105 115 145 155 163 164 170 183 178 185 182 188 191 190 209 186 182 195 186 209 214 233 257 264 262 266 266 271 280 280 279 280 284 280 272 276 280 284 240 209 157 91 127 152 151 149 154 158 159 164 166 166
22 30 40 43 47 50 52 48 41 36 33 29 27 25 22 15 3 18 23 55 85 100 106 125 124 126 113 83 242 225 67 41 69 127 134 137 127 125 140 156 164 164 179 186 177 189 185 184 177 203 228 137 170 191 190 223 212 212 246 262 261 264 271 284 286 276 272 274 280 261 245 237 221 220 198 174 147 125 123 146 155 155 158 162 164 167 169 170
349 11 26 35 42 42 45 41 34 32 30 29 27 25 24 20 12 15 20 46 97 109 120 134 125 127 97 92 253 228 74 64 92 111 135 145 152 145 147 166 168 168 180 181 180 184 173 167 148 199 225 146 182 191 194 234 283 199 254 270 269 272 282 290 280 261 251 246 247 235 212 130 183 223 175 136 155 154 142 148 158 161 163 165 166 168 172 174
301 333 351 5 17 22 25 23 22 24 25 26 24 21 20 19 18 14 16 26 79 114 129 128 126 116 86 26 288 68 92 88 96 106 123 134 158 164 166 180 175 178 180 174 177 171 156 132 119 207 195 156 182 189 201 246 307 274 274 276 260 256 259 258 242 220 222 192 203 226 182 138 190 222 78 112 162 168 159 159 164 168 165 165 166 168 176 178
284 293 313 324 329 346 0 3 9 15 19 19 18 18 14 16 23 22 26 44 81 95 109 121 124 94 87 303 325 93 111 107 103 107 108 117 145 165 175 182 179 188 183 176 179 176 183 147 239 263 172 165 189 184 188 240 278 268 273 276 249 205 179 171 149 164 193 146 170 236 199 176 179 109 74 111 162 172 174 168 167 170 165 165 166 169 179 181
285 282 286 296 302 314 332 346 359 7 12 12 13 16 13 23 31 33 39 53 72 75 92 107 112 97 66 172 111 114 122 120 111 109 104 106 121 135 139 146 153 163 163 170 181 191 212 198 274 301 311 227 207 127 218 238 260 256 246 264 250 195 159 109 125 154 149 95 222 240 222 177 148 97 87 123 163 176 182 175 172 172 167 168 169 174 181 182
282 279 279 279 284 295 314 333 347 358 6 6 9 12 18 32 34 38 40 48 61 63 84 93 108 115 91 116 122 121 125 135 131 126 112 106 113 118 119 127 135 144 150 164 183 199 215 202 252 260 240 252 285 311 251 219 228 239 223 236 237 207 134 96 106 162 147 95 237 240 243 174 127 103 101 129 172 186 187 180 177 174 171 173 173 179 182 183
280 276 275 273 274 283 301 321 332 348 359 359 5 11 18 26 31 42 42 45 48 47 75 91 98 121 170 132 126 123 126 136 139 146 147 128 131 133 127 131 135 142 153 172 191 200 195 180 243 244 210 228 251 247 227 196 199 221 225 200 207 215 122 103 81 70 116 108 168 240 249 182 119 100 106 142 185 196 197 184 183 182 178 179 179 184 185 184
288 278 272 270 270 274 288 304 315 333 350 353 356 355 357 357 2 33 34 33 22 30 57 79 108 137 239 140 132 133 127 133 161 164 157 146 153 152 133 130 131 131 153 181 191 184 177 191 243 260 239 213 227 238 218 196 188 204 237 195 188 219 151 128 106 72 80 127 171 232 260 234 107 101 113 160 195 200 205 189 186 187 183 187 189 190 189 184
298 291 277 270 267 270 279 285 294 318 338 344 348 342 340 340 319 264 12 5 356 10 17 260 135 134 201 138 144 145 135 157 174 174 162 156 159 152 135 132 135 102 138 167 165 167 179 205 224 225 229 229 232 247 230 212 188 187 225 195 175 235 210 150 129 95 67 212 170 197 260 280 97 128 140 171 199 206 212 198 190 193 190 194 196 196 194 189
307 302 288 277 268 265 267 268 271 294 330 335 344 338 327 334 320 207 337 346 344 344 331 181 182 192 153 159 164 143 147 172 170 174 170 166 162 157 156 153 155 146 153 159 156 178 196 205 237 235 208 215 217 233 235 231 212 193 203 199 174 202 236 186 121 78 31 239 191 196 240 259 97 197 177 177 200 211 215 206 201 202 200 202 202 204 202 198
313 310 303 291 271 255 247 245 243 261 326 329 340 333 325 339 321 186 332 331 293 267 276 166 199 273 111 147 160 121 161 170 164 168 171 173 171 165 169 168 170 178 183 185 167 182 216 209 226 236 211 198 196 272 303 354 344 278 231 239 212 192 209 152 85 55 15 270 220 217 254 267 10 194 169 180 201 215 217 209 213 214 211 211 209 210 210 205
317 317 320 298 261 238 221 211 204 223 318 321 340 332 326 342 295 176 334 305 248 271 317 192 231 282 98 130 145 117 139 154 155 163 172 174 173 169 176 184 190 204 216 214 153 160 239 235 224 237 352 54 50 334 332 347 329 280 249 239 235 229 204 129 96 71 11 293 222 156 288 265 272 8 155 179 198 215 217 211 216 220 220 220 217 216 215 211
323 326 337 317 233 204 188 180 183 255 312 311 354 353 356 355 344 357 337 280 234 288 291 247 246 247 192 143 158 131 138 152 151 162 172 169 175 181 179 192 210 211 194 164 129 145 231 244 215 49 28 46 110 191 274 290 264 240 239 232 222 232 208 114 100 97 38 292 219 147 272 251 227 252 163 174 199 214 215 215 218 222 226 228 227 224 221 215
325 336 355 12 174 175 168 168 191 264 296 268 43 37 33 7 352 346 328 280 260 295 276 236 237 238 216 187 173 145 153 168 156 164 174 168 188 199 171 194 227 201 144 170 198 181 223 234 118 89 63 109 152 186 206 231 235 227 231 236 226 219 200 126 127 134 97 284 263 171 277 263 242 242 201 190 206 208 209 219 224 226 229 230 232 231 227 220
325 331 355 101 159 171 172 178 224 257 247 199 93 52 350 345 341 342 317 279 274 268 238 225 227 229 216 201 177 169 181 186 164 169 183 179 191 212 194 199 224 182 169 199 222 228 227 152 108 105 144 169 168 178 203 213 215 223 223 230 225 175 219 201 145 145 142 287 296 304 280 267 245 228 216 202 206 199 196 220 231 236 237 234 239 238 232 227
330 293 300 159 175 188 191 208 255 251 234 229 219 274 313 330 336 338 302 270 269 161 201 207 204 212 201 186 180 189 201 205 170 168 186 194 186 197 211 206 210 201 191 194 230 257 263 90 103 142 189 205 191 175 204 225 208 207 225 243 243 166 239 266 124 147 193 191 270 285 267 255 233 225 215 186 195 210 205 216 224 232 240 242 247 247 241 235
329 269 245 218 198 207 228 251 260 248 242 252 261 283 307 324 331 330 281 254 192 146 175 177 182 191 188 186 172 190 219 194 178 160 181 198 194 184 184 198 232 208 152 169 229 250 94 87 134 194 198 215 213 195 206 236 235 201 208 233 252 240 233 255 235 235 239 202 170 295 275 249 183 213 210 169 190 202 194 203 212 215 225 233 241 246 246 243
328 289 241 234 223 223 243 258 239 241 253 248 259 285 306 320 325 320 272 241 151 136 170 168 173 165 162 180 169 201 225 172 148 181 185 192 198 219 191 171 233 217 112 192 241 269 97 112 186 215 213 210 223 224 193 218 251 222 184 206 228 235 224 232 231 236 259 248 124 278 279 270 191 200 170 159 199 193 177 175 174 195 216 229 237 243 247 248
339 309 254 244 238 236 247 254 240 255 265 243 261 288 304 316 323 317 259 215 135 125 180 148 139 137 137 169 184 212 218 122 126 165 188 192 187 226 229 170 192 152 136 233 231 140 130 148 181 216 229 221 229 226 175 211 247 251 120 191 209 215 214 222 232 239 270 304 204 216 258 276 256 220 141 159 222 209 188 167 146 164 199 234 253 256 259 259
348 322 273 253 254 248 251 256 254 267 264 254 268 287 299 310 321 293 252 186 109 142 169 124 115 129 128 175 200 231 351 105 159 138 172 202 186 221 242 206 223 145 158 251 252 124 158 189 200 217 237 238 238 65 141 218 239 54 79 207 208 209 212 218 241 252 260 290 258 213 209 260 258 213 154 186 224 212 190 164 127 124 116 248 282 285 282 276
348 331 291 255 260 258 253 256 253 252 257 266 277 287 298 298 283 252 249 197 111 176 135 123 155 145 156 187 190 219 242 249 315 104 152 195 184 220 265 202 255 177 171 252 293 103 160 210 233 243 249 250 305 51 53 232 232 92 146 185 182 190 205 221 251 264 234 257 268 212 179 266 269 220 189 193 211 201 165 99 18 28 29 5 342 320 304 294
344 330 303 258 257 257 260 264 254 254 268 282 288 293 292 260 237 234 222 208 147 153 132 159 170 163 202 193 169 180 195 152 81 128 152 170 179 202 324 111 225 237 201 237 265 250 142 151 205 247 254 296 63 70 30 271 172 144 180 190 190 194 204 223 245 269 255 251 253 156 167 264 270 236 201 137 62 15 349 335 348 350 349 352 348 335 326 317
342 328 310 230 211 226 260 259 259 267 275 283 295 282 241 221 234 236 201 176 175 152 154 162 146 191 207 194 157 149 162 127 122 180 173 161 180 187 191 190 205 232 227 221 229 208 185 194 184 204 225 224 166 157 117 166 185 193 208 214 219 215 214 232 223 217 251 253 161 115 155 234 253 239 116 90 67 34 336 324 336 333 337 347 346 339 337 332
342 327 287 140 131 111 107 223 266 265 257 278 283 234 231 222 230 234 165 170 204 164 152 124 87 145 178 156 116 129 153 121 120 204 190 182 194 167 209 253 239 237 237 214 202 219 222 203 144 152 190 207 223 205 156 175 199 214 227 227 235 236 227 241 238 228 246 241 111 116 162 228 249 217 100 107 86 58 359 336 329 328 335 341 345 346 348 347
337 309 219 173 171 182 169 15 350 226 234 295 234 226 239 240 234 224 157 183 165 70 86 70 71 141 190 171 117 116 157 107 111 171 138 227 211 119 91 1 315 266 268 287 268 264 238 160 146 172 171 195 227 223 191 193 198 214 228 230 242 248 242 245 247 248 252 200 109 124 183 241 246 123 90 97 84 63 26 0 337 334 338 342 352 358 4 7
325 291 229 215 222 225 224 276 339 247 266 259 225 219 232 241 233 102 192 167 88 85 106 99 147 146 158 144 93 68 171 105 82 190 181 211 211 155 127 105 193 261 263 264 269 277 266 195 158 181 128 171 222 242 280 288 219 221 236 243 249 253 254 259 261 263 265 229 123 140 189 250 248 119 89 100 109 111 102 81 46 13 4 7 14 16 22 23
313 281 240 235 237 235 237 255 270 269 261 236 227 221 226 233 204 192 202 126 116 160 138 156 205 174 136 109 88 30 344 83 92 205 218 224 215 158 129 95 73 274 255 250 222 246 266 257 104 86 85 168 224 252 288 282 245 221 233 245 253 257 253 263 290 309 302 285 210 187 222 260 136 116 122 132 137 136 126 121 111 81 58 47 40 34 33 31
308 286 250 242 241 238 237 250 261 260 244 235 231 225 229 254 246 199 168 93 176 174 159 180 209 205 175 152 138 113 31 18 129 211 170 104 91 93 105 72 47 313 280 270 230 200 254 247 105 112 138 142 293 291 232 256 263 202 229 244 252 287 266 258 248 99 287 270 258 236 242 233 167 162 156 154 155 149 144 138 119 93 75 64 51 41 39 41
306 289 249 239 238 232 230 243 254 244 234 237 240 241 244 264 281 210 94 85 237 229 220 206 202 233 199 176 168 141 132 197 184 228 197 148 127 100 128 104 46 341 327 306 275 255 278 269 159 171 183 110 67 270 214 235 264 251 244 243 164 248 257 249 255 235 228 257 258 234 239 239 236 208 158 165 170 158 153 143 125 106 87 72 58 48 44 48
308 291 243 233 233 225 222 229 235 230 233 237 237 244 253 207 162 164 106 248 231 222 237 231 205 245 224 202 176 137 163 218 171 227 233 182 161 91 157 149 92 32 352 298 266 79 287 268 209 159 226 126 143 230 224 200 229 261 287 296 220 250 245 227 247 255 249 258 258 243 239 241 252 226 162 177 181 164 157 149 135 116 94 78 65 55 47 49
312 280 226 219 224 217 214 217 225 233 235 240 236 219 218 190 146 141 210 242 232 222 234 238 208 219 226 225 195 142 196 254 209 233 242 205 162 116 176 227 117 75 20 302 286 68 244 265 244 130 125 162 203 227 240 211 196 229 259 244 238 265 268 252 249 257 260 261 264 261 251 245 258 229 180 187 181 166 162 153 137 117 98 84 71 60 50 50
303 260 212 201 213 208 206 212 222 233 230 243 263 227 177 180 159 150 217 259 236 240 250 229 208 219 209 205 240 206 199 254 257 248 239 196 159 138 110 336 291 46 42 273 271 295 223 247 258 198 144 226 241 221 271 289 235 223 236 234 230 235 259 266 255 250 258 263 263 267 262 260 280 228 197 190 173 164 162 152 138 123 109 92 78 69 59 57
263 252 202 191 209 190 190 214 223 236 238 242 263 229 174 186 174 157 159 245 244 277 299 254 231 232 211 206 226 210 206 236 239 245 237 201 201 192 102 41 311 330 294 238 219 253 269 243 257 261 236 245 255 70 4 334 323 285 267 255 250 246 249 258 253 243 245 260 266 268 270 275 27 41 182 164 156 156 155 148 140 130 119 104 88 78 71 68
232 253 196 203 227 196 197 222 210 224 248 247 234 186 129 160 199 169 163 206 222 212 236 242 242 235 223 235 241 214 226 241 228 238 245 210 202 135 82 40 291 278 280 269 167 69 344 271 259 262 259 262 320 64 47 310 301 285 276 273 272 264 253 254 259 259 254 260 271 272 270 276 63 45 69 122 134 139 145 147 142 134 125 115 103 92 84 78
275 288 295 252 238 192 210 230 203 207 233 211 99 137 121 182 211 189 183 202 215 208 208 206 211 231 227 236 245 227 226 239 234 242 248 202 134 83 66 29 262 240 257 266 140 109 179 259 258 255 256 260 253 143 157 190 246 257 250 252 267 271 269 269 277 285 270 261 264 263 260 248 93 64 60 93 115 126 138 148 146 139 131 126 117 105 96 88
305 294 298 304 232 190 217 243 231 227 209 159 178 174 141 111 247 216 206 203 352 233 220 198 180 216 195 193 237 231 215 227 228 224 244 217 138 91 61 20 282 240 271 338 14 125 236 252 255 262 260 249 233 218 203 196 217 244 249 249 271 278 279 280 278 274 261 260 263 259 260 253 114 119 137 128 137 147 149 152 150 147 143 139 129 117 108 99
299 236 176 4 35 179 213 320 292 259 194 174 200 179 163 151 68 24 346 56 36 336 272 118 124 200 182 180 216 218 208 238 241 198 207 201 143 115 84 28 322 247 56 25 355 256 260 268 259 264 263 252 250 249 245 246 239 237 245 252 260 264 263 264 264 256 251 260 259 253 261 255 126 150 184 171 168 171 161 160 163 159 155 151 140 132 122 110
309 274 131 39 50 90 89 47 355 276 221 192 198 175 209 194 112 60 2 60 55 15 355 58 130 210 200 196 218 218 204 219 238 225 215 203 160 130 116 97 54 67 73 41 3 247 257 267 254 257 261 266 274 278 320 340 301 271 264 259 250 250 257 263 261 254 257 261 251 248 258 253 204 190 192 182 184 185 174 178 182 173 165 162 154 149 140 123
337 357 3 359 44 74 89 63 30 348 36 258 231 146 226 207 147 114 71 56 55 54 37 75 203 222 216 211 224 227 211 205 219 230 227 214 166 126 130 174 123 78 113 119 335 256 252 255 250 254 259 266 277 283 294 303 285 277 277 271 263 254 246 248 253 261 271 269 259 260 261 252 242 225 206 189 186 192 188 190 190 181 172 170 165 164 159 144
33 41 24 10 4 31 54 34 13 20 67 20 293 70 153 198 164 122 94 87 96 70 285 201 186 229 233 223 230 222 211 211 213 214 211 205 194 168 167 181 166 142 202 207 193 278 265 264 259 259 262 265 270 273 272 271 268 269 270 268 268 263 252 249 250 257 265 262 263 279 274 251 246 253 245 221 203 208 207 198 193 182 175 174 172 173 171 161
31 49 40 29 35 30 19 0 339 350 46 32 30 57 24 106 112 84 49 35 150 91 325 223 167 114 159 221 247 228 208 222 211 197 199 195 203 216 211 192 175 181 209 216 81 16 282 275 270 269 270 271 270 266 263 261 260 261 260 259 259 260 257 256 254 255 260 260 263 277 280 260 249 267 276 268 230 227 222 203 190 184 179 177 177 178 174 165
33 30 6 342 40 42 19 3 324 288 58 23 22 67 45 43 88 88 51 11 23 74 356 255 135 77 72 158 235 170 71 16 35 100 47 241 195 223 249 254 186 188 210 250 31 126 255 275 303 282 275 273 271 268 262 259 259 260 259 256 256 256 255 254 256 255 258 262 264 267 271 265 257 260 263 263 219 226 220 203 193 187 181 178 179 181 174 165
41 33 5 319 2 18 0 13 350 291 81 49 25 50 52 50 65 82 71 41 29 42 18 357 58 82 132 109 82 68 50 18 11 33 359 301 306 317 282 332 335 250 241 270 256 186 241 266 275 271 270 272 272 268 265 267 270 266 261 256 252 252 252 252 253 252 250 257 263 260 260 267 269 258 251 241 225 230 230 219 201 185 178 181 183 182 175 165
34 30 21 335 329 16 354 2 358 312 57 43 28 45 50 56 72 80 93 70 49 40 26 5 354 275 202 113 70 35 10 343 328 332 321 301 303 297 279 287 293 279 275 278 265 246 256 268 272 268 269 275 277 277 281 284 278 269 265 259 247 248 255 257 254 254 251 251 256 259 265 290 329 289 261 256 252 248 246 233 206 183 179 185 187 182 175 163